Time,TemperatureF,DewpointF,PressureIn,WindDirection,WindDirectionDegrees,WindSpeedMPH,WindSpeedGustMPH,Humidity,HourlyPrecipIn,Conditions,Clouds,dailyrainin,SoftwareType,DateUTC
2013-09-02 00:14:00,73.6,70.5,29.61,South,180,3.7,-999.0,90,-99.99,,,0.00,Acu-Link.com,2013-09-02 04:14:00,
2013-09-02 00:29:00,73.2,70.4,29.62,SSE,157,2.7,-999.0,91,-99.99,,,0.00,Acu-Link.com,2013-09-02 04:29:00,
2013-09-02 00:44:00,73.2,70.4,29.61,South,180,3.2,-999.0,91,-99.99,,,0.00,Acu-Link.com,2013-09-02 04:44:00,
2013-09-02 00:59:00,72.9,70.4,29.61,ESE,112,4.2,-999.0,92,-99.99,,,0.00,Acu-Link.com,2013-09-02 04:59:00,
2013-09-02 01:15:00,72.7,70.6,29.62,WSW,247,2.7,-999.0,93,-99.99,,,0.00,Acu-Link.com,2013-09-02 05:15:00,
2013-09-02 01:30:00,72.7,70.6,29.62,West,270,3.7,-999.0,93,-99.99,,,0.00,Acu-Link.com,2013-09-02 05:30:00,
2013-09-02 01:45:00,72.9,70.8,29.63,SW,225,2.7,-999.0,93,-99.99,,,0.00,Acu-Link.com,2013-09-02 05:45:00,
2013-09-02 02:00:00,73.0,70.9,29.63,West,270,3.2,-999.0,93,-99.99,,,0.00,Acu-Link.com,2013-09-02 06:00:00,
2013-09-02 02:16:00,72.9,70.8,29.62,WSW,247,2.7,-999.0,93,-99.99,,,0.00,Acu-Link.com,2013-09-02 06:16:00,
2013-09-02 02:31:00,73.4,71.2,29.63,West,270,6.3,-999.0,93,-99.99,,,0.00,Acu-Link.com,2013-09-02 06:31:00,
2013-09-02 02:46:00,73.6,71.4,29.63,WSW,247,3.2,-999.0,93,-99.99,,,0.00,Acu-Link.com,2013-09-02 06:46:00,
2013-09-02 03:01:00,73.4,71.2,29.62,West,270,9.9,-999.0,93,-99.99,,,0.00,Acu-Link.com,2013-09-02 07:01:00,
2013-09-02 03:16:00,73.6,71.4,29.63,West,270,6.3,-999.0,93,-99.99,,,0.00,Acu-Link.com,2013-09-02 07:16:00,
2013-09-02 03:32:00,73.6,71.4,29.63,WSW,247,5.3,-999.0,93,-99.99,,,0.00,Acu-Link.com,2013-09-02 07:32:00,
2013-09-02 03:47:00,73.6,71.4,29.63,SW,225,3.2,-999.0,93,-99.99,,,0.00,Acu-Link.com,2013-09-02 07:47:00,
2013-09-02 04:02:00,73.0,70.9,29.63,WSW,247,3.7,-999.0,93,-99.99,,,0.00,Acu-Link.com,2013-09-02 08:02:00,
2013-09-02 04:18:00,73.0,70.9,29.63,SW,225,1.7,-999.0,93,-99.99,,,0.00,Acu-Link.com,2013-09-02 08:18:00,
2013-09-02 04:34:00,73.0,70.9,29.63,WSW,247,3.2,-999.0,93,-99.99,,,0.00,Acu-Link.com,2013-09-02 08:34:00,
2013-09-02 04:49:00,72.9,71.1,29.63,WSW,247,2.7,-999.0,94,-99.99,,,0.00,Acu-Link.com,2013-09-02 08:49:00,
2013-09-02 05:04:00,72.7,70.9,29.62,East,90,2.2,-999.0,94,-99.99,,,0.00,Acu-Link.com,2013-09-02 09:04:00,
2013-09-02 05:19:00,72.3,70.8,29.62,WNW,292,2.7,-999.0,95,-99.99,,,0.00,Acu-Link.com,2013-09-02 09:19:00,
2013-09-02 05:34:00,71.6,70.7,29.61,WSW,247,2.2,-999.0,97,-99.99,,,0.00,Acu-Link.com,2013-09-02 09:34:00,
2013-09-02 05:50:00,71.4,70.8,29.61,West,270,2.7,-999.0,98,-99.99,,,0.00,Acu-Link.com,2013-09-02 09:50:00,
2013-09-02 06:05:00,71.2,70.6,29.62,WSW,247,3.2,-999.0,98,-99.99,,,0.00,Acu-Link.com,2013-09-02 10:05:00,
2013-09-02 06:20:00,71.1,70.8,29.62,SSW,202,2.7,-999.0,99,-99.99,,,0.00,Acu-Link.com,2013-09-02 10:20:00,
2013-09-02 06:35:00,70.7,70.4,29.62,South,180,1.7,-999.0,99,-99.99,,,0.00,Acu-Link.com,2013-09-02 10:35:00,
2013-09-02 06:51:00,70.3,70.0,29.62,SE,135,0.0,-999.0,99,-99.99,,,0.00,Acu-Link.com,2013-09-02 10:51:00,
2013-09-02 07:06:00,70.2,69.9,29.63,SSW,202,2.7,-999.0,99,-99.99,,,0.00,Acu-Link.com,2013-09-02 11:06:00,
2013-09-02 07:21:00,70.2,69.9,29.64,SSE,157,1.1,-999.0,99,-99.99,,,0.00,Acu-Link.com,2013-09-02 11:21:00,
2013-09-02 07:36:00,70.0,69.7,29.65,SW,225,2.2,-999.0,99,-99.99,,,0.00,Acu-Link.com,2013-09-02 11:36:00,
2013-09-02 07:52:00,70.3,70.0,29.65,West,270,3.2,-999.0,99,-99.99,,,0.00,Acu-Link.com,2013-09-02 11:52:00,
2013-09-02 08:07:00,70.9,70.6,29.66,South,180,2.2,-999.0,99,-99.99,,,0.00,Acu-Link.com,2013-09-02 12:07:00,
2013-09-02 08:22:00,71.4,71.1,29.66,SW,225,2.7,-999.0,99,-99.99,,,0.00,Acu-Link.com,2013-09-02 12:22:00,
2013-09-02 08:37:00,72.1,71.5,29.66,West,270,3.7,-999.0,98,-99.99,,,0.00,Acu-Link.com,2013-09-02 12:37:00,
2013-09-02 08:53:00,72.7,71.5,29.67,West,270,1.7,-999.0,96,-99.99,,,0.00,Acu-Link.com,2013-09-02 12:53:00,
2013-09-02 09:08:00,73.2,71.7,29.67,West,270,4.2,-999.0,95,-99.99,,,0.00,Acu-Link.com,2013-09-02 13:08:00,
2013-09-02 09:23:00,74.1,72.3,29.67,West,270,2.7,-999.0,94,-99.99,,,0.00,Acu-Link.com,2013-09-02 13:23:00,
2013-09-02 09:38:00,73.6,71.8,29.68,West,270,7.8,-999.0,94,-99.99,,,0.00,Acu-Link.com,2013-09-02 13:38:00,
2013-09-02 09:54:00,74.1,71.9,29.69,WSW,247,4.2,-999.0,93,-99.99,,,0.00,Acu-Link.com,2013-09-02 13:54:00,
2013-09-02 10:09:00,74.3,72.1,29.69,West,270,2.2,-999.0,93,-99.99,,,0.00,Acu-Link.com,2013-09-02 14:09:00,
2013-09-02 10:24:00,75.0,72.2,29.69,West,270,4.2,-999.0,91,-99.99,,,0.00,Acu-Link.com,2013-09-02 14:24:00,
2013-09-02 10:39:00,75.4,72.3,29.69,West,270,2.7,-999.0,90,-99.99,,,0.00,Acu-Link.com,2013-09-02 14:39:00,
2013-09-02 10:54:00,75.4,71.9,29.70,SSW,202,4.2,-999.0,89,-99.99,,,0.00,Acu-Link.com,2013-09-02 14:54:00,
2013-09-02 11:09:00,77.2,73.4,29.69,SSW,202,3.7,-999.0,88,-99.99,,,0.00,Acu-Link.com,2013-09-02 15:09:00,
2013-09-02 11:25:00,77.9,73.4,29.70,SSW,202,3.7,-999.0,86,-99.99,,,0.00,Acu-Link.com,2013-09-02 15:25:00,
2013-09-02 11:40:00,79.2,73.9,29.69,West,270,4.2,-999.0,84,-99.99,,,0.00,Acu-Link.com,2013-09-02 15:40:00,
2013-09-02 11:55:00,80.2,74.2,29.69,ESE,112,2.7,-999.0,82,-99.99,,,0.00,Acu-Link.com,2013-09-02 15:55:00,
2013-09-02 12:10:00,79.3,73.3,29.70,SE,135,3.7,-999.0,82,-99.99,,,0.00,Acu-Link.com,2013-09-02 16:10:00,
2013-09-02 12:26:00,79.9,73.2,29.69,WSW,247,3.2,-999.0,80,-99.99,,,0.00,Acu-Link.com,2013-09-02 16:26:00,
2013-09-02 12:41:00,80.2,73.8,29.69,West,270,3.7,-999.0,81,-99.99,,,0.00,Acu-Link.com,2013-09-02 16:41:00,
2013-09-02 12:56:00,82.8,74.8,29.68,SSE,157,4.2,-999.0,77,-99.99,,,0.00,Acu-Link.com,2013-09-02 16:56:00,
2013-09-02 13:11:00,80.6,73.5,29.68,WSW,247,2.7,-999.0,79,-99.99,,,0.00,Acu-Link.com,2013-09-02 17:11:00,
2013-09-02 13:26:00,81.5,74.0,29.67,West,270,4.2,-999.0,78,-99.99,,,0.00,Acu-Link.com,2013-09-02 17:26:00,
2013-09-02 13:41:00,82.2,73.9,29.67,SSE,157,2.7,-999.0,76,-99.99,,,0.00,Acu-Link.com,2013-09-02 17:41:00,
2013-09-02 13:57:00,82.6,75.8,29.67,West,270,1.7,-999.0,80,-99.99,,,0.00,Acu-Link.com,2013-09-02 17:57:00,
2013-09-02 14:12:00,82.4,74.1,29.66,SSW,202,2.2,-999.0,76,-99.99,,,0.00,Acu-Link.com,2013-09-02 18:12:00,
2013-09-02 14:27:00,84.0,75.2,29.65,SSE,157,6.3,-999.0,75,-99.99,,,0.00,Acu-Link.com,2013-09-02 18:27:00,
2013-09-02 14:43:00,84.7,75.1,29.65,WSW,247,4.7,-999.0,73,-99.99,,,0.00,Acu-Link.com,2013-09-02 18:43:00,
2013-09-02 14:58:00,84.9,74.4,29.65,SE,135,3.2,-999.0,71,-99.99,,,0.00,Acu-Link.com,2013-09-02 18:58:00,
2013-09-02 15:13:00,83.5,73.9,29.64,West,270,2.2,-999.0,73,-99.99,,,0.00,Acu-Link.com,2013-09-02 19:13:00,
2013-09-02 15:28:00,84.2,74.6,29.63,West,270,6.3,-999.0,73,-99.99,,,0.00,Acu-Link.com,2013-09-02 19:28:00,
2013-09-02 15:43:00,84.0,74.4,29.62,South,180,4.7,-999.0,73,-99.99,,,0.00,Acu-Link.com,2013-09-02 19:43:00,
2013-09-02 15:58:00,83.5,73.9,29.62,West,270,4.2,-999.0,73,-99.99,,,0.00,Acu-Link.com,2013-09-02 19:58:00,
2013-09-02 16:13:00,82.9,73.3,29.62,South,180,6.8,-999.0,73,-99.99,,,0.00,Acu-Link.com,2013-09-02 20:13:00,
2013-09-02 16:28:00,82.4,73.7,29.61,South,180,3.7,-999.0,75,-99.99,,,0.00,Acu-Link.com,2013-09-02 20:28:00,
2013-09-02 16:44:00,81.7,73.4,29.62,West,270,1.7,-999.0,76,-99.99,,,0.00,Acu-Link.com,2013-09-02 20:44:00,
2013-09-02 16:59:00,81.5,73.2,29.62,WSW,247,3.2,-999.0,76,-99.99,,,0.00,Acu-Link.com,2013-09-02 20:59:00,
2013-09-02 17:14:00,80.4,72.5,29.63,WSW,247,6.3,-999.0,77,-99.99,,,0.00,Acu-Link.com,2013-09-02 21:14:00,
2013-09-02 17:29:00,75.2,69.3,29.62,East,90,3.7,-999.0,82,-99.99,,,0.00,Acu-Link.com,2013-09-02 21:29:00,
2013-09-02 17:44:00,74.7,69.9,29.62,East,90,2.2,-999.0,85,-99.99,,,0.00,Acu-Link.com,2013-09-02 21:44:00,
2013-09-02 18:00:00,75.2,70.4,29.62,SSW,202,0.0,-999.0,85,-99.99,,,0.00,Acu-Link.com,2013-09-02 22:00:00,
2013-09-02 18:15:00,76.3,70.7,29.62,WSW,247,2.2,-999.0,83,-99.99,,,0.00,Acu-Link.com,2013-09-02 22:15:00,
2013-09-02 18:30:00,76.8,70.9,29.60,West,270,3.2,-999.0,82,-99.99,,,0.00,Acu-Link.com,2013-09-02 22:30:00,
2013-09-02 18:45:00,79.2,71.7,29.61,SSW,202,3.2,-999.0,78,-99.99,,,0.00,Acu-Link.com,2013-09-02 22:45:00,
2013-09-02 19:00:00,79.9,70.9,29.61,WSW,247,2.7,-999.0,74,-99.99,,,0.00,Acu-Link.com,2013-09-02 23:00:00,
2013-09-02 19:15:00,79.3,70.3,29.62,SSW,202,2.7,-999.0,74,-99.99,,,0.00,Acu-Link.com,2013-09-02 23:15:00,
2013-09-02 19:31:00,78.8,70.6,29.63,SSW,202,2.2,-999.0,76,-99.99,,,0.00,Acu-Link.com,2013-09-02 23:31:00,
2013-09-02 19:46:00,77.5,70.5,29.63,WSW,247,3.2,-999.0,79,-99.99,,,0.00,Acu-Link.com,2013-09-02 23:46:00,
2013-09-02 20:01:00,77.0,70.0,29.62,West,270,3.2,-999.0,79,-99.99,,,0.00,Acu-Link.com,2013-09-03 00:01:00,
2013-09-02 20:16:00,76.3,70.0,29.64,WSW,247,0.0,-999.0,81,-99.99,,,0.00,Acu-Link.com,2013-09-03 00:16:00,
2013-09-02 20:31:00,75.6,69.7,29.64,West,270,3.2,-999.0,82,-99.99,,,0.00,Acu-Link.com,2013-09-03 00:31:00,
2013-09-02 20:47:00,75.6,69.7,29.63,West,270,2.2,-999.0,82,-99.99,,,0.00,Acu-Link.com,2013-09-03 00:47:00,
2013-09-02 21:02:00,75.4,69.5,29.64,West,270,2.7,-999.0,82,-99.99,,,0.00,Acu-Link.com,2013-09-03 01:02:00,
2013-09-02 21:17:00,75.2,69.7,29.64,WSW,247,0.0,-999.0,83,-99.99,,,0.00,Acu-Link.com,2013-09-03 01:17:00,
2013-09-02 21:33:00,74.8,69.6,29.65,West,270,3.7,-999.0,84,-99.99,,,0.00,Acu-Link.com,2013-09-03 01:33:00,
2013-09-02 21:48:00,74.5,69.7,29.64,SW,225,0.0,-999.0,85,-99.99,,,0.00,Acu-Link.com,2013-09-03 01:48:00,
2013-09-02 22:03:00,74.7,69.9,29.64,WSW,247,1.7,-999.0,85,-99.99,,,0.00,Acu-Link.com,2013-09-03 02:03:00,
2013-09-02 22:19:00,74.7,70.2,29.64,NE,45,0.0,-999.0,86,-99.99,,,0.00,Acu-Link.com,2013-09-03 02:19:00,
2013-09-02 22:34:00,74.3,69.8,29.65,West,270,0.0,-999.0,86,-99.99,,,0.00,Acu-Link.com,2013-09-03 02:34:00,
2013-09-02 22:49:00,74.7,70.2,29.65,SSW,202,0.0,-999.0,86,-99.99,,,0.00,Acu-Link.com,2013-09-03 02:49:00,
2013-09-02 23:05:00,74.5,70.0,29.65,West,270,0.0,-999.0,86,-99.99,,,0.00,Acu-Link.com,2013-09-03 03:05:00,
2013-09-02 23:20:00,74.3,70.5,29.65,ENE,67,0.0,-999.0,88,-99.99,,,0.00,Acu-Link.com,2013-09-03 03:20:00,
2013-09-02 23:35:00,73.9,70.4,29.66,ENE,67,0.0,-999.0,89,-99.99,,,0.00,Acu-Link.com,2013-09-03 03:35:00,
2013-09-02 23:51:00,73.4,70.0,29.66,ENE,67,0.0,-999.0,89,-99.99,,,0.00,Acu-Link.com,2013-09-03 03:51:00,